TimeEDT,TemperatureF,Dew PointF,Humidity,Sea Level PressureIn,VisibilityMPH,Wind Direction,Wind SpeedMPH,Gust SpeedMPH,PrecipitationIn,Events,Conditions,WindDirDegrees,DateUTC
12:53 AM,41.0,28.9,62,29.92,10.0,WNW,4.6,-,N/A,,Clear,300,2013-03-21 04:53:00
1:53 AM,39.2,30.2,70,29.93,10.0,West,6.9,-,N/A,,Clear,260,2013-03-21 05:53:00
2:53 AM,41.0,28.0,60,29.92,10.0,WNW,6.9,-,N/A,,Clear,290,2013-03-21 06:53:00
3:53 AM,39.9,27.0,60,29.92,10.0,WNW,6.9,-,N/A,,Clear,300,2013-03-21 07:53:00
4:53 AM,37.9,26.1,62,29.92,10.0,West,5.8,-,N/A,,Clear,280,2013-03-21 08:53:00
5:53 AM,36.0,27.0,70,29.93,10.0,West,3.5,-,N/A,,Clear,270,2013-03-21 09:53:00
6:53 AM,35.1,26.1,70,29.94,10.0,NW,4.6,-,N/A,,Clear,310,2013-03-21 10:53:00
7:53 AM,37.9,28.0,68,29.95,10.0,NW,6.9,-,N/A,,Clear,320,2013-03-21 11:53:00
8:53 AM,39.9,30.0,68,29.96,10.0,West,4.6,-,N/A,,Clear,270,2013-03-21 12:53:00
9:53 AM,43.0,26.1,51,29.98,10.0,NNW,10.4,-,N/A,,Clear,330,2013-03-21 13:53:00
10:53 AM,45.0,23.0,42,29.99,10.0,NNW,15.0,19.6,N/A,,Clear,330,2013-03-21 14:53:00
11:53 AM,46.9,21.0,36,29.99,10.0,NW,9.2,18.4,N/A,,Clear,320,2013-03-21 15:53:00
12:53 PM,48.9,19.0,31,29.98,10.0,WNW,15.0,20.7,N/A,,Clear,290,2013-03-21 16:53:00
1:53 PM,51.1,19.0,28,29.96,10.0,WNW,11.5,-,N/A,,Clear,300,2013-03-21 17:53:00
2:53 PM,53.1,18.0,25,29.94,10.0,WNW,9.2,18.4,N/A,,Clear,300,2013-03-21 18:53:00
3:53 PM,55.0,17.1,23,29.91,10.0,West,12.7,18.4,N/A,,Clear,280,2013-03-21 19:53:00
4:53 PM,55.0,12.9,19,29.91,10.0,West,10.4,19.6,N/A,,Clear,270,2013-03-21 20:53:00
5:53 PM,55.9,10.9,17,29.91,10.0,WNW,11.5,-,N/A,,Clear,290,2013-03-21 21:53:00
6:53 PM,54.0,10.0,17,29.91,10.0,NNW,8.1,-,N/A,,Clear,330,2013-03-21 22:53:00
7:53 PM,50.0,10.9,21,29.91,10.0,NW,4.6,-,N/A,,Clear,310,2013-03-21 23:53:00
8:53 PM,45.0,17.1,33,29.94,10.0,NW,4.6,-,N/A,,Clear,320,2013-03-22 00:53:00
9:53 PM,39.9,25.0,55,29.95,10.0,Calm,Calm,-,N/A,,Clear,0,2013-03-22 01:53:00
10:53 PM,37.9,26.1,62,29.98,10.0,WNW,3.5,-,N/A,,Clear,300,2013-03-22 02:53:00
11:53 PM,39.0,30.9,73,29.97,10.0,Calm,Calm,-,N/A,,Clear,0,2013-03-22 03:53:00